Location: Clyde
(45.1830°S, 169.3170°E)
Time: 22:39:32
(UTC+13:00)

Cosmos 1745 Rocket - Pass Details

Date: 24 January 2019
Orbit: 953 x 998 km, 83.0° (Epoch: 17 October)

Event Time Altitude Azimuth Distance (km) Brightness Sun altitude
Exits shadow 23:04:17 14° 7° (N) 2,477 5.6 -14.8°
Maximum altitude 23:09:48 67° 86° (E) 1,085 4.1 -15.5°
Drops below altitude 10° 23:16:07 10° 167° (SSE) 2,781 6.9 -16.2°
Sets 23:18:40 0° 169° (S) 3,730 7.7 -16.5°
